Terminal Aerodrome Forecast
Issued by NWS Boston, MA

Home | Current Version | Previous Version | Text Only | Print | Product List | Glossary On
Versions: 1 2 3 4 5 6 7 8 9 10 11 12 13 14 15 16 17 18 19 20 21 22 23 24 25 26 27 28 29 30 31 32 33 34 35 36 37 38 39 40 41 42 43 44 45
000
FTUS41 KBOX 261121
TAFBDL
TAF
KBDL 261121Z 2612/2718 18005KT P6SM BKN200
     FM261500 21007KT P6SM SCT060
     FM262000 21009KT P6SM BKN110
     FM270900 19006KT 3SM BR BKN045
     FM271400 20007KT 3SM -SHRA BKN045=

USA.gov is the U.S. government's official web portal to all federal, state and local government web resources and services.